GFSGBSN_850_thetae_030.txt.gz
Theta_e
310 310 310 309 309 307 305 304 304 305 305 305 306 306 307 307 308 309 309 309 310 312 313 313 313 313 312 323 323 323 323 322 320 320 328 332 334 336 339 340 340 348 345 345 340 339 341
311 311 310 310 309 309 308 306 305 304 304 305 305 305 306 306 307 308 309 309 310 311 313 313 313 313 312 319 322 324 324 324 325 326 329 333 333 334 335 338 338 337 344 343 340 340 342
313 313 312 311 310 310 309 309 307 305 304 304 304 305 305 305 306 307 308 310 310 311 312 313 313 313 317 320 324 325 325 327 326 327 327 328 331 331 333 333 333 335 341 342 341 340 342
314 314 313 313 312 311 310 310 309 309 307 307 306 306 305 306 306 307 308 309 310 311 312 312 313 313 320 321 324 323 323 325 327 328 327 326 326 327 329 331 332 334 338 344 341 339 341
314 314 313 312 312 312 311 311 310 310 309 308 308 308 308 307 307 307 309 310 311 311 311 312 314 320 326 325 325 325 323 324 324 324 327 327 326 326 328 330 332 334 339 342 342 341 342
313 313 314 313 312 311 311 311 311 310 310 309 308 308 308 308 307 307 309 311 313 315 316 318 319 330 330 327 327 325 323 323 323 325 326 327 327 327 328 330 332 334 339 340 344 343 341
313 313 313 312 312 312 312 311 310 310 310 310 309 309 309 309 308 306 309 315 321 324 326 329 329 324 326 328 327 328 325 324 325 326 326 327 327 328 328 330 333 334 339 340 344 342 342
312 312 312 311 311 312 311 311 310 309 309 309 309 308 309 311 309 307 311 317 317 315 315 316 319 326 329 328 328 327 327 328 327 328 327 328 327 327 329 331 333 335 338 342 344 345 346
310 309 309 309 309 308 308 308 308 308 308 308 309 308 305 310 308 315 313 313 316 315 315 317 318 318 322 329 329 328 327 327 328 327 328 327 327 327 328 330 333 334 337 340 343 345 343
310 309 309 309 309 309 307 307 305 306 307 307 307 307 305 306 311 312 313 316 313 313 316 322 324 321 320 322 325 327 328 328 326 328 328 328 328 327 327 330 333 334 335 338 342 344 346
310 309 309 309 309 309 308 307 306 305 305 304 305 305 305 304 305 309 314 313 313 314 323 329 326 325 323 323 326 324 326 328 328 327 328 328 327 327 327 328 332 334 335 337 338 342 346
310 310 309 309 308 308 307 306 304 303 303 301 302 303 304 307 308 311 311 312 313 318 323 328 327 326 325 324 324 327 324 326 328 328 328 329 328 328 328 328 330 333 335 336 337 339 345
309 309 308 308 307 307 306 305 303 304 302 301 301 302 303 304 309 310 311 312 316 320 327 329 329 328 327 325 325 329 326 326 329 331 329 329 329 329 328 328 329 331 334 338 340 342 341
309 308 307 307 307 306 305 303 304 303 303 301 302 303 305 308 310 310 310 314 318 323 322 329 329 329 328 329 327 327 329 327 327 329 330 330 330 329 329 328 329 330 332 338 342 343 342
308 307 305 305 306 304 304 305 304 304 304 303 303 307 308 309 311 311 312 315 319 322 325 327 328 328 330 329 330 329 330 329 327 329 331 332 330 330 329 329 328 329 331 332 335 337 340
305 304 305 306 305 304 304 305 304 304 304 304 303 308 312 312 312 312 314 316 319 319 322 323 325 327 329 330 330 330 331 331 328 328 330 330 331 331 330 330 329 329 330 331 333 340 343
302 304 304 304 305 305 305 304 304 304 304 304 307 311 311 312 312 314 316 316 317 317 318 319 319 321 323 328 330 330 329 331 330 329 329 329 332 331 332 331 329 328 328 329 332 336 340
304 304 304 303 303 303 304 304 304 304 304 305 307 310 311 313 314 314 315 316 316 318 318 320 321 320 320 321 326 329 330 330 330 331 330 329 329 333 331 332 331 329 330 329 331 340 336
303 303 303 303 303 303 302 302 303 304 303 305 307 308 308 310 313 313 314 314 315 317 318 319 320 321 321 320 323 324 328 330 330 330 331 332 330 333 332 331 332 331 329 328 328 329 338
302 303 303 303 303 302 301 301 301 303 303 304 306 310 309 310 311 312 314 316 316 315 316 318 320 320 321 321 322 323 324 327 328 330 333 332 330 333 332 333 332 334 331 330 329 330 332
302 302 302 303 303 303 302 302 301 302 302 303 305 308 309 311 312 313 313 314 314 316 316 317 319 320 319 322 319 320 321 323 326 333 328 329 332 331 331 329 331 332 332 330 331 332 333
300 300 301 301 301 302 303 303 302 302 302 304 304 306 307 308 308 309 309 311 311 312 312 313 317 318 319 321 323 321 322 325 326 328 328 330 333 330 331 330 330 332 332 332 332 331 331
300 300 300 301 301 301 303 303 303 303 303 304 305 304 306 307 308 309 309 310 311 311 312 312 314 314 315 315 315 316 317 319 323 328 332 331 330 335 334 332 331 332 334 333 331 332 331
301 301 302 301 301 301 302 303 303 303 304 304 304 305 305 306 308 309 308 308 310 310 311 312 311 311 311 311 313 318 320 322 323 325 325 334 334 332 334 335 336 332 332 332 333 331 330
302 302 302 302 301 301 302 303 303 303 304 304 304 304 303 306 306 307 308 308 309 309 310 310 310 310 309 311 317 321 323 324 324 325 325 329 333 331 335 333 332 332 333 333 333 336 333
303 302 302 302 302 301 302 302 303 302 302 303 303 304 303 303 305 305 308 307 307 310 311 311 311 312 311 312 316 322 326 323 325 325 326 327 334 334 334 333 334 335 332 333 333 337 337
301 303 303 301 301 302 302 302 303 303 303 303 304 303 304 301 304 305 307 307 307 308 310 310 312 314 313 314 317 318 322 324 324 328 331 328 331 331 332 333 332 332 333 336 340 343 344
302 301 301 302 302 302 302 302 302 302 302 302 304 304 304 302 303 304 305 306 306 307 308 310 310 314 315 317 319 319 322 324 324 325 329 330 331 330 333 336 335 335 338 338 346 345 345
301 301 302 301 301 302 302 302 302 302 302 302 303 304 303 305 304 304 305 306 307 307 307 308 310 310 313 317 320 321 323 327 329 328 326 329 328 331 334 335 342 336 343 342 341 341 343

GFSGBSN_850_thetae_033.txt.gz
Theta_e
315 315 315 314 313 312 311 310 310 310 310 310 309 308 307 307 307 308 308 309 309 310 311 311 312 313 311 314 316 322 322 322 321 322 323 325 326 330 334 337 342 342 339 339 340 340 340
315 315 314 314 314 314 313 312 311 310 310 310 311 310 309 308 308 309 308 309 309 310 311 311 312 312 311 316 320 321 322 323 322 321 320 325 328 331 335 335 341 344 342 342 341 343 341
316 316 315 314 314 313 313 313 313 313 312 311 310 311 311 310 309 309 309 310 310 310 311 310 311 311 311 317 322 324 324 323 323 325 324 325 330 332 334 332 334 334 342 343 341 341 340
317 316 315 314 314 313 313 313 313 313 314 314 313 312 311 311 311 310 310 310 310 311 311 310 310 312 313 320 322 323 325 325 326 325 326 327 328 329 330 329 328 329 329 330 340 336 340
317 316 315 314 313 313 312 313 313 313 312 313 314 315 314 312 312 311 311 311 311 312 311 311 311 315 324 324 324 323 323 324 324 328 327 327 326 326 326 324 324 326 328 329 340 339 340
314 312 311 311 311 310 310 310 310 310 310 310 311 312 314 315 313 312 312 311 316 320 320 319 321 327 323 323 327 324 324 323 325 326 324 325 327 324 322 322 325 326 328 329 340 340 343
311 310 310 310 310 310 309 308 307 306 306 307 307 308 311 314 314 312 310 314 317 321 324 329 326 321 321 324 328 327 325 324 323 323 322 325 324 324 323 323 325 328 329 330 338 342 344
311 311 310 310 310 309 310 309 308 306 304 305 307 307 308 312 314 311 313 314 314 316 316 315 316 319 326 328 329 328 326 323 323 321 322 324 324 325 326 326 326 327 329 330 343 342 341
312 311 310 310 309 309 309 309 307 305 303 303 304 306 307 310 314 313 315 315 314 314 313 314 315 316 316 321 324 329 327 323 323 323 325 324 324 326 326 326 327 327 328 331 344 343 342
310 310 310 310 309 309 308 307 307 304 304 303 302 303 304 308 313 312 313 314 314 313 312 317 318 318 317 318 323 327 327 327 327 326 326 325 325 327 326 325 326 326 329 332 342 342 346
309 309 309 309 308 308 307 307 306 304 304 304 303 302 302 302 307 313 312 313 313 313 318 325 323 322 320 318 324 326 329 327 327 326 324 325 326 326 325 325 325 327 330 332 332 341 343
309 309 309 309 306 307 306 306 305 305 305 305 305 304 303 304 305 311 311 312 313 314 319 324 325 322 319 319 321 324 327 327 328 326 325 326 328 326 325 326 325 326 328 329 331 333 343
309 308 308 307 306 306 306 305 304 306 305 305 304 305 305 304 306 309 310 312 312 315 323 327 325 325 322 320 320 321 323 324 324 327 326 325 326 326 327 324 324 324 323 328 331 333 334
307 306 305 304 305 307 305 305 305 305 305 304 304 304 306 307 307 310 311 312 315 321 319 323 324 326 325 324 322 322 321 323 324 325 326 327 326 326 327 325 323 323 323 326 331 334 334
303 303 303 304 305 305 305 305 305 305 304 304 304 304 305 311 309 310 311 314 316 319 320 319 319 322 326 327 326 323 322 323 323 324 324 327 327 328 327 327 325 324 324 324 325 329 332
303 303 304 304 303 303 303 304 304 304 305 304 304 306 305 312 312 311 313 314 316 317 317 316 317 320 321 320 321 326 323 324 325 324 324 325 328 327 328 327 326 324 325 324 325 327 332
304 304 304 303 303 303 303 303 303 303 303 304 306 308 305 310 311 312 313 314 314 315 316 317 318 319 319 319 320 320 323 326 326 326 325 324 325 327 328 327 325 323 324 322 324 327 328
301 302 303 303 303 304 303 302 302 302 302 304 305 307 305 307 310 313 313 314 314 315 315 316 317 318 319 319 319 320 320 320 327 329 326 325 325 326 327 328 327 326 323 321 324 327 328
301 301 301 302 302 303 303 304 302 301 302 303 304 305 305 307 309 311 312 313 313 313 315 315 316 317 318 319 319 320 321 322 321 322 329 326 326 325 326 326 327 327 326 324 323 321 324
300 300 300 300 300 301 301 303 304 302 302 302 305 306 306 308 309 310 312 314 314 313 313 314 314 316 318 318 319 320 321 322 322 321 327 333 326 325 326 327 328 330 327 326 324 323 322
300 301 301 301 301 301 301 302 303 303 302 302 304 306 306 308 309 308 310 311 312 311 312 312 313 314 316 320 320 321 321 320 320 322 324 322 326 327 326 328 329 328 329 328 326 325 324
301 301 301 301 302 301 301 302 302 304 303 302 304 305 305 305 306 307 308 309 310 310 311 311 312 314 314 316 316 315 314 315 318 319 318 318 328 330 329 328 327 328 328 328 328 327 326
301 301 302 303 303 302 301 301 302 304 304 302 303 305 305 305 306 306 306 308 309 309 310 310 311 312 313 313 312 312 312 313 314 316 319 319 322 329 328 329 330 329 327 327 329 329 328
303 303 303 303 303 303 302 302 302 303 303 303 302 304 304 305 305 306 306 306 308 309 310 309 310 310 311 311 310 312 314 317 318 320 320 321 321 326 328 330 332 330 328 328 329 331 329
301 301 302 304 302 301 302 302 303 303 303 303 303 304 304 305 304 305 305 306 307 308 308 308 310 311 311 311 314 314 318 319 320 321 321 322 322 327 329 329 329 331 330 332 329 329 331
302 302 301 302 302 302 302 302 302 303 303 303 303 304 304 303 304 304 306 306 306 308 309 309 309 310 313 311 316 316 320 321 324 323 321 322 322 327 327 328 329 330 331 330 330 332 340
301 301 301 302 301 301 302 302 302 302 303 303 303 303 304 303 303 303 305 306 306 307 308 307 310 309 310 315 316 316 316 316 321 326 324 323 325 328 329 327 328 331 329 329 332 334 344
301 302 302 301 302 302 302 302 302 302 302 302 302 303 304 304 303 304 304 305 306 306 307 308 309 309 311 316 315 317 317 318 322 324 326 329 329 329 328 332 333 339 333 342 345 344 344
301 301 301 301 301 301 301 301 302 302 302 302 302 304 304 305 304 305 306 305 305 307 307 307 308 308 310 315 315 314 320 321 324 329 324 328 330 333 333 332 339 339 340 340 341 344 342

GFSGBSN_850_thetae_036.txt.gz
Theta_e
320 320 320 319 318 317 317 317 316 316 316 315 314 312 311 311 311 310 310 309 309 309 308 309 310 310 310 311 316 319 323 322 322 323 322 324 328 324 327 332 343 343 343 342 342 342 341
320 319 319 318 318 317 316 317 317 318 318 318 317 317 316 313 312 312 312 311 310 310 309 309 310 309 309 310 320 320 319 321 322 321 321 324 324 325 327 332 342 342 341 341 342 341 341
320 318 317 316 315 315 314 314 315 315 316 316 316 317 317 317 316 313 313 314 312 311 310 309 309 309 309 316 320 321 322 321 321 322 322 321 322 327 330 330 336 341 337 341 342 340 340
317 315 314 313 312 312 312 312 312 312 312 313 314 314 314 315 316 317 314 315 313 311 311 310 310 309 311 316 318 320 320 322 323 323 323 324 320 324 327 330 326 325 334 341 340 340 338
313 312 311 311 311 311 311 311 310 309 308 309 310 312 312 313 313 316 317 316 312 314 317 314 310 311 315 317 320 322 321 324 324 325 326 324 326 326 327 324 321 321 323 326 327 335 340
311 312 311 310 310 309 309 309 309 307 305 304 306 308 310 312 313 314 318 314 315 319 322 321 320 322 319 319 324 325 322 325 325 325 328 325 326 321 319 318 321 322 325 326 331 341 341
311 311 310 310 310 309 309 308 307 306 305 304 304 303 304 309 311 314 318 314 314 317 315 316 321 317 319 321 322 327 323 323 322 323 321 322 321 324 321 319 321 322 323 324 328 336 341
310 309 310 309 309 309 308 307 307 306 305 305 305 304 303 306 308 313 313 313 313 311 310 313 315 317 318 320 325 328 324 323 321 319 318 319 320 321 322 322 322 322 323 324 339 342 342
310 309 309 309 309 308 308 307 306 306 306 306 306 305 305 305 309 311 312 314 313 312 310 312 314 315 316 317 319 323 326 325 320 318 319 319 321 323 324 324 324 322 322 324 328 341 341
310 309 309 309 309 308 307 306 306 306 306 306 306 306 306 306 309 308 313 313 313 313 308 312 313 315 315 316 315 320 327 324 320 320 319 319 321 323 323 324 324 322 324 325 328 336 341
309 308 308 307 306 305 305 306 305 304 305 304 304 305 306 305 305 306 310 312 312 312 319 322 319 319 317 317 320 322 324 323 321 322 321 323 323 323 323 323 324 323 324 325 328 338 339
306 305 304 303 303 303 304 304 305 305 305 305 304 304 305 306 306 308 308 311 312 311 316 318 321 317 316 316 320 324 324 326 325 324 323 323 325 324 324 324 324 324 322 323 325 330 339
303 302 302 303 303 304 304 304 304 305 305 305 305 304 303 304 306 307 307 311 308 312 316 323 318 316 316 315 317 320 326 325 325 324 325 324 324 323 324 322 322 322 319 321 323 324 328
302 303 303 303 303 303 303 303 303 304 304 304 304 303 303 303 304 305 309 308 311 315 316 316 316 319 319 317 316 318 319 327 325 322 324 324 325 323 323 324 323 319 320 320 321 325 326
302 302 302 303 303 303 303 303 303 303 303 303 303 303 303 303 304 308 309 310 310 313 314 315 315 318 317 320 317 317 317 320 326 321 323 322 324 325 324 324 324 321 319 319 319 324 326
301 301 301 302 302 303 303 303 304 302 302 302 302 303 302 305 308 310 307 311 310 313 314 315 315 316 317 317 318 317 317 319 319 321 320 321 323 323 326 323 323 323 318 320 315 320 322
300 300 300 300 300 301 301 302 303 304 303 301 303 305 302 307 305 309 310 309 312 312 313 313 314 314 314 316 316 316 317 319 320 321 321 322 320 323 324 325 324 322 320 318 318 319 323
300 300 300 300 300 300 300 301 301 303 303 302 303 302 302 306 303 305 310 309 311 311 313 313 313 314 314 314 315 315 317 318 319 318 318 318 319 322 322 322 324 325 323 319 322 319 320
300 300 300 300 301 301 301 300 301 302 303 302 302 304 303 306 304 306 309 310 312 313 312 312 313 313 313 315 316 316 317 319 316 319 318 320 320 321 319 320 322 323 323 322 314 316 322
301 301 301 301 303 303 303 301 301 302 304 302 303 302 304 305 306 305 307 310 310 310 310 311 311 312 313 315 316 317 317 317 314 315 320 317 320 320 324 323 323 323 325 322 321 321 321
301 301 302 303 303 303 303 302 301 302 303 303 303 303 303 304 304 305 306 307 309 309 310 310 310 311 314 314 315 317 315 313 314 316 314 314 317 318 319 323 324 325 326 325 322 322 323
302 303 303 303 304 304 303 303 302 302 303 304 303 303 303 304 304 304 304 306 308 309 309 309 310 310 312 313 313 313 312 311 311 313 312 313 317 318 325 324 324 325 325 326 325 324 323
301 301 301 301 303 304 302 303 302 302 303 303 303 303 304 304 303 303 302 305 305 306 309 308 309 310 309 310 310 310 310 310 310 310 311 314 315 317 322 324 324 325 326 326 325 324 323
301 301 302 301 301 303 302 301 302 303 303 304 303 303 301 305 304 304 303 304 305 306 307 307 307 308 310 309 309 311 310 309 309 310 311 316 317 317 320 323 325 324 325 326 324 325 326
301 301 301 301 301 301 302 302 302 302 303 303 303 303 303 305 304 303 304 304 305 304 304 306 308 306 309 310 310 311 312 313 314 313 314 316 319 319 322 324 325 328 327 325 325 326 326
301 301 301 301 301 301 302 302 302 302 302 303 303 303 303 302 304 304 304 303 302 302 305 307 306 306 308 310 312 313 314 316 321 321 317 318 320 321 322 325 327 326 328 326 326 327 333
301 301 301 301 301 301 301 301 302 302 302 302 302 303 304 303 303 303 303 302 305 304 302 304 307 308 309 311 314 313 313 313 316 321 324 326 324 323 322 327 323 325 326 326 327 326 340
301 301 301 301 301 301 301 301 301 301 302 302 302 302 303 304 303 304 304 303 303 304 305 305 306 308 308 313 315 315 312 312 317 320 325 327 329 330 326 327 328 330 333 326 327 342 340
301 301 301 301 301 302 302 301 300 301 302 302 302 302 303 303 304 304 304 303 304 305 305 305 306 307 307 307 310 310 313 317 316 324 323 326 327 330 330 334 328 330 328 328 339 340 342

GFSGBSN_850_thetae_042.txt.gz
Theta_e
313 313 312 311 311 311 310 310 310 310 308 307 307 308 309 309 312 315 315 315 316 317 314 314 312 310 308 308 313 318 320 318 319 317 318 335 344 348 340 341 344 344 345 344 343 341 347
313 312 312 311 311 310 310 309 308 307 306 306 306 306 306 306 307 309 312 314 315 318 317 315 314 310 307 305 314 315 317 317 319 318 324 338 344 345 330 326 340 341 342 342 341 342 344
310 310 310 310 310 309 309 308 307 307 307 307 307 307 307 307 307 308 311 314 315 319 319 316 314 310 307 312 314 316 317 318 320 317 327 331 333 342 330 323 327 332 336 335 341 341 340
310 310 310 310 309 309 308 307 306 306 306 306 306 306 307 307 308 308 311 314 317 319 318 315 314 311 309 314 312 314 316 317 318 317 320 325 329 329 330 325 324 332 335 338 333 334 338
310 309 309 308 308 307 306 305 305 304 304 304 304 304 304 305 307 310 311 314 316 315 317 317 315 311 312 314 313 314 315 317 319 318 319 322 322 325 325 322 320 319 324 326 326 329 334
309 308 307 306 305 304 303 303 302 302 302 302 302 303 303 304 305 310 312 313 314 319 320 319 320 315 317 317 323 322 315 316 321 320 324 324 323 319 317 318 322 323 322 322 325 330 335
307 306 304 303 302 302 302 302 301 301 301 301 302 302 302 303 303 309 312 313 312 313 311 320 321 318 318 319 321 322 324 315 319 319 321 323 321 320 320 318 321 323 322 324 323 324 335
304 303 302 301 301 301 302 301 302 302 301 301 301 301 301 302 303 307 311 309 306 306 306 313 316 315 318 319 318 324 322 316 319 319 319 317 322 321 320 319 320 320 321 321 320 322 332
301 301 301 301 302 302 302 301 302 302 301 301 301 301 301 302 303 304 309 307 305 308 306 310 312 313 314 316 315 319 321 318 317 316 321 322 320 321 321 320 321 319 320 320 322 328 337
301 301 301 301 301 301 301 301 301 301 301 302 301 301 301 300 303 302 307 306 305 310 306 311 311 313 313 315 313 319 320 319 318 321 316 318 320 323 320 321 320 318 319 321 321 323 323
300 300 300 300 300 300 300 300 300 300 300 301 301 301 301 301 301 302 303 304 305 308 315 318 312 313 315 316 316 316 320 320 317 318 316 319 318 319 323 323 320 322 320 320 322 322 323
300 299 299 299 299 299 299 299 300 300 300 300 301 301 301 302 302 304 303 303 309 311 316 318 315 314 313 313 314 317 319 321 320 318 318 318 318 319 318 319 320 321 320 316 317 318 323
299 299 299 299 299 299 299 300 301 301 300 301 301 302 302 304 305 307 303 305 308 312 313 316 314 314 314 314 314 316 317 319 319 317 317 318 319 319 318 318 319 320 318 318 319 320 323
299 299 299 299 299 300 300 300 301 301 301 301 301 302 302 305 305 306 306 305 309 312 312 313 314 314 316 313 314 314 316 320 319 319 319 318 319 318 318 318 318 318 317 316 319 318 323
299 299 299 299 299 300 300 301 302 302 302 301 301 302 303 304 304 304 308 305 307 310 311 312 312 314 313 314 314 314 314 319 321 318 320 317 319 320 319 319 319 317 318 316 315 317 316
299 300 300 300 300 300 302 302 303 303 302 301 302 302 303 304 305 304 305 306 307 309 310 310 312 312 313 312 313 312 313 315 317 317 315 320 321 319 319 320 319 317 317 319 312 320 320
301 301 301 302 302 302 303 303 303 303 302 302 302 302 303 304 304 306 302 304 308 309 310 309 310 311 311 313 313 313 313 315 315 316 316 314 317 321 318 320 322 317 316 315 317 313 318
301 301 301 301 301 301 303 304 304 303 302 302 302 299 303 305 302 301 305 304 309 310 309 309 310 311 312 313 313 313 314 314 313 313 318 319 311 318 319 320 321 322 321 313 320 316 313
301 300 300 301 301 301 303 304 303 302 302 302 302 302 303 304 300 301 302 306 306 310 308 309 310 310 311 312 312 316 316 313 312 314 318 317 315 314 318 319 319 319 319 316 314 312 321
301 301 300 300 301 301 302 304 302 303 302 302 302 299 302 303 302 302 302 304 306 307 309 309 309 311 311 312 311 313 313 314 311 314 315 314 313 314 319 319 316 316 320 318 318 319 321
301 301 300 301 301 301 301 303 302 302 302 302 302 300 301 300 302 302 301 303 306 306 306 309 309 307 308 311 310 312 312 310 310 311 309 310 315 316 315 317 318 319 319 320 320 320 320
300 300 301 301 301 300 301 301 302 303 302 302 302 303 302 302 303 303 302 302 306 304 305 306 308 307 306 308 309 309 309 308 309 308 307 306 313 314 317 318 319 319 319 320 320 320 320
301 300 300 300 300 300 300 301 302 302 303 302 303 303 302 302 303 304 303 302 304 303 304 306 306 305 305 306 307 307 308 308 307 308 307 307 310 315 317 317 318 319 320 320 319 319 320
301 301 300 300 300 301 301 301 301 302 302 303 303 303 302 303 303 303 303 303 303 302 303 304 304 303 305 305 306 306 306 306 307 307 307 307 310 313 316 317 321 318 319 321 321 320 319
303 303 302 302 302 301 301 301 301 301 302 302 302 302 303 303 303 303 303 304 302 302 301 302 303 303 303 306 305 306 306 308 307 307 307 307 308 312 318 317 318 319 329 332 330 322 321
303 303 303 303 303 303 303 303 303 302 301 302 302 302 302 303 303 303 303 302 302 302 302 302 303 304 305 303 306 308 308 310 311 312 308 308 308 310 314 319 321 322 329 330 330 329 326
302 302 302 302 302 302 302 303 303 304 303 301 301 302 302 302 302 302 302 302 302 302 303 302 302 303 306 306 308 304 307 309 311 312 311 308 310 311 313 319 319 323 329 329 328 328 328
302 301 301 301 301 301 301 303 303 303 304 304 302 301 302 302 302 301 302 302 302 302 302 302 301 303 306 308 308 308 309 311 311 310 313 311 312 311 311 318 320 326 329 332 327 328 329
302 301 300 300 300 301 303 303 303 304 304 305 304 302 302 302 303 303 302 302 302 302 302 303 303 302 303 304 305 304 306 309 309 313 311 315 315 317 313 315 318 328 327 328 328 329 329

GFSGBSN_850_thetae_045.txt.gz
Theta_e
311 310 310 310 310 309 308 308 307 307 307 307 307 307 307 308 308 308 309 311 315 317 318 318 315 313 311 308 311 317 319 319 317 315 328 341 344 345 347 348 343 343 345 345 344 343 342
310 310 309 309 309 308 307 306 305 305 304 304 304 304 304 305 306 307 308 310 313 316 319 318 317 314 311 308 313 314 316 315 318 317 333 338 341 344 344 343 347 343 345 344 341 341 345
309 309 308 307 306 305 304 303 303 303 303 303 303 303 303 303 304 306 310 311 314 316 317 319 318 315 311 314 313 313 315 316 317 318 331 333 340 343 335 328 335 334 336 334 338 341 343
308 306 305 304 303 302 302 302 302 302 302 302 302 302 302 303 303 304 309 313 315 316 318 318 315 312 312 314 312 314 317 316 318 327 326 332 338 341 329 325 326 332 335 338 338 341 341
304 303 302 302 301 301 301 301 301 301 301 301 301 301 302 302 303 304 309 313 314 318 318 316 315 312 313 313 312 312 317 317 319 331 327 331 333 332 327 332 330 327 333 335 336 337 339
302 301 301 301 301 301 301 300 300 300 300 300 300 300 301 301 302 305 309 313 312 313 318 319 318 314 316 317 314 313 314 318 327 328 326 324 328 329 326 329 329 330 330 330 334 333 337
301 301 301 300 300 300 300 300 299 299 300 300 301 301 301 301 301 303 310 312 311 311 310 320 322 317 319 319 323 319 314 321 321 325 325 323 324 325 326 326 326 326 328 333 332 330 336
301 300 300 300 299 299 299 299 299 300 300 300 300 301 301 301 302 303 308 307 303 304 307 312 313 313 319 318 318 321 314 320 319 322 323 323 324 324 323 323 324 324 326 331 329 326 328
300 300 299 299 299 299 299 299 300 301 301 301 301 301 301 301 302 301 304 306 304 303 308 311 311 311 314 316 316 319 314 316 319 319 321 323 322 323 323 324 324 323 324 327 330 326 334
299 299 299 299 299 299 299 299 300 301 301 301 301 301 301 301 302 301 305 304 303 305 312 314 312 313 312 315 316 317 317 317 319 320 320 321 322 323 323 324 324 324 323 323 327 329 332
299 299 299 299 299 299 299 300 300 301 301 301 301 301 302 302 302 304 304 304 303 307 313 317 313 312 313 317 316 316 318 318 320 321 322 322 323 324 324 323 324 323 323 324 325 329 329
299 299 299 299 299 299 299 300 301 301 301 301 301 301 301 303 303 304 305 302 307 312 314 319 315 314 315 316 316 318 318 320 320 322 322 323 320 323 325 324 324 325 324 324 324 327 330
299 299 299 299 299 299 299 301 301 302 302 302 301 302 302 304 304 305 306 305 312 315 315 317 316 316 316 317 315 318 320 321 323 322 323 323 321 323 323 325 324 324 325 326 327 327 329
300 300 300 300 301 301 301 301 302 303 303 302 301 302 303 303 304 305 305 307 313 312 313 313 314 315 318 316 317 317 320 322 323 323 324 323 323 322 322 324 324 325 324 323 326 326 326
301 300 301 301 301 300 301 302 303 303 303 301 301 302 303 302 303 304 306 306 310 311 310 310 313 316 316 315 315 317 319 322 323 322 324 323 323 322 321 323 324 324 326 324 323 322 324
300 300 300 300 301 301 301 303 303 303 302 301 301 302 302 303 304 305 307 307 309 309 311 310 313 313 315 315 317 317 320 316 320 319 319 323 324 323 322 322 323 323 324 322 324 324 324
300 300 300 300 301 301 301 302 302 301 302 301 301 302 303 304 304 306 307 307 308 309 310 312 311 312 313 315 315 316 317 316 315 318 321 321 323 324 323 323 323 321 324 323 324 323 323
300 300 300 300 300 301 301 303 303 302 302 301 302 304 302 303 304 304 305 305 307 309 309 310 311 313 314 314 314 316 317 316 313 317 321 320 320 327 325 324 324 323 324 324 325 326 323
300 300 300 300 301 301 301 302 303 302 302 301 302 301 302 302 305 305 304 305 306 308 309 311 311 312 312 314 314 316 316 313 312 317 318 318 322 326 326 325 323 324 324 324 324 325 328
300 300 300 300 300 300 301 301 302 302 302 302 302 304 302 302 302 303 304 304 305 306 308 309 310 309 312 313 314 314 314 313 311 314 315 316 319 324 327 326 322 324 324 325 324 327 326
300 300 300 300 300 300 300 301 302 302 302 302 302 303 302 304 303 303 304 304 305 306 304 306 307 308 308 312 311 313 312 311 310 311 312 315 318 317 318 318 320 321 322 322 324 326 329
301 301 301 301 301 300 300 301 301 303 302 302 303 303 302 301 303 303 304 304 304 305 304 305 308 307 306 308 309 310 310 311 311 312 312 312 315 317 316 317 319 321 321 322 322 323 323
303 303 304 304 303 303 302 301 301 302 302 302 302 302 302 302 303 303 304 304 305 304 304 305 306 305 305 306 305 306 306 308 308 310 311 312 313 316 317 317 319 321 322 322 323 323 323
303 303 303 303 303 303 303 303 303 302 302 302 302 302 302 303 303 303 303 303 304 304 304 303 303 304 304 304 305 306 306 306 307 308 308 311 314 318 315 317 320 322 322 326 324 323 323
302 302 302 301 301 301 301 302 303 304 303 303 302 303 302 305 303 303 303 303 304 303 302 302 303 304 303 304 307 305 307 310 311 310 309 309 312 313 314 317 318 319 321 331 332 328 330
302 302 301 301 301 300 300 300 301 302 303 304 303 302 303 302 304 303 303 303 303 303 302 302 302 303 304 308 307 307 305 309 308 312 311 310 310 313 314 314 317 321 322 323 331 329 332
302 302 302 301 300 300 300 300 301 303 303 303 304 304 302 301 302 302 303 303 302 302 303 302 303 303 305 307 307 307 308 308 308 310 314 312 311 312 312 315 316 318 325 331 337 330 333
302 302 301 301 300 300 301 301 303 305 304 304 304 305 303 302 302 302 302 302 302 302 304 302 303 304 306 307 307 308 310 310 311 311 313 315 315 314 312 313 313 316 327 329 332 331 332
302 301 301 301 301 301 301 303 306 307 307 306 305 304 305 302 302 302 302 302 302 302 302 303 303 303 305 306 306 306 308 309 310 311 312 315 313 316 313 313 314 315 319 326 329 330 331

GFSGBSN_850_thetae_048.txt.gz
Theta_e
309 307 306 305 304 303 303 303 302 302 302 302 302 303 303 303 304 304 305 308 310 312 314 317 317 317 314 316 315 315 319 320 318 330 332 337 339 337 340 342 344 347 347 346 346 345 344
306 305 304 302 302 302 302 302 301 301 301 301 301 302 302 303 303 304 304 309 312 315 315 316 317 316 314 316 315 313 315 315 327 332 332 336 337 336 339 343 344 342 344 346 345 343 344
304 302 302 301 301 301 301 301 300 300 300 300 301 301 301 301 302 303 304 309 312 315 317 317 317 315 316 318 316 313 320 324 331 332 331 334 336 337 336 341 340 342 344 344 341 341 346
301 301 301 301 300 300 300 300 300 300 300 300 301 302 302 302 302 303 304 309 312 315 316 317 317 315 319 317 316 314 321 327 332 330 329 329 334 337 334 331 330 335 335 340 341 341 343
301 301 300 300 300 300 300 300 300 300 301 301 301 302 302 302 303 303 306 310 312 313 314 317 315 317 321 316 314 315 323 329 332 330 328 330 332 334 337 336 334 332 339 340 343 342 344
300 300 300 299 299 299 299 300 300 301 301 301 302 302 302 302 303 303 305 310 311 311 314 319 318 318 318 320 318 313 323 325 333 333 330 332 333 334 337 338 337 336 336 340 344 342 342
300 299 299 299 299 299 300 300 300 301 301 301 301 301 302 302 302 303 303 310 314 318 312 322 325 322 322 320 319 314 321 325 332 329 328 328 331 330 329 330 331 334 335 337 339 340 339
299 299 299 299 299 299 299 300 300 301 301 301 301 301 301 302 302 302 307 309 306 305 308 311 312 315 322 321 323 316 320 325 329 329 326 326 329 327 327 326 328 330 332 335 337 336 335
299 299 299 299 299 299 299 300 300 301 301 301 301 301 301 301 302 304 307 307 306 306 310 314 314 315 315 316 321 321 320 322 328 328 327 326 326 325 326 328 329 330 332 332 335 336 334
300 299 299 299 300 299 299 300 301 301 301 302 301 301 301 302 306 305 307 306 307 306 315 317 315 316 315 318 321 322 317 321 324 327 326 326 325 325 326 326 327 329 329 330 330 333 337
300 300 300 300 300 300 301 301 301 301 302 302 301 301 301 302 303 307 305 306 305 309 316 319 317 315 316 319 323 321 321 321 323 323 326 326 326 325 326 325 326 327 328 328 329 330 332
300 301 301 301 301 301 301 301 302 302 302 302 301 301 302 305 306 305 305 305 308 315 315 321 316 317 318 318 320 321 321 317 319 323 324 324 323 325 325 325 325 325 326 327 328 329 332
301 300 301 300 300 301 301 302 302 302 301 301 301 302 302 302 305 304 305 308 312 313 317 320 319 319 320 321 321 321 323 323 325 324 324 324 324 325 325 326 326 325 327 327 328 329 332
300 300 300 300 300 301 301 301 301 301 301 302 301 302 302 304 304 302 306 310 309 313 316 315 315 317 320 321 321 321 323 325 325 325 327 327 326 325 326 326 327 326 327 326 330 330 330
300 300 300 300 300 301 301 301 301 301 302 302 301 305 305 304 303 305 308 308 308 314 313 314 315 319 322 320 320 321 322 324 325 327 328 328 328 326 326 326 327 327 329 326 327 328 329
300 300 300 300 301 301 301 301 301 302 302 302 302 305 304 304 305 307 309 307 310 310 311 313 315 316 319 320 321 321 323 321 325 326 327 328 330 327 325 326 326 327 327 326 327 328 329
301 301 301 301 301 301 301 301 302 302 302 302 305 306 304 304 306 307 308 307 307 307 308 311 314 315 316 317 319 321 323 319 320 323 323 327 328 330 326 326 327 326 327 327 326 326 328
301 301 301 300 301 301 300 301 302 303 302 304 305 307 304 305 307 307 307 307 306 308 308 310 311 311 314 316 318 320 322 320 315 320 324 326 328 331 328 327 326 327 327 328 328 329 328
301 301 300 300 300 300 300 301 301 302 302 304 305 305 304 304 307 307 307 307 306 307 307 310 312 313 313 315 317 318 319 316 314 319 323 325 326 331 331 329 327 327 327 327 327 328 331
302 302 302 302 302 301 301 301 301 302 302 304 305 307 305 305 305 306 306 307 307 306 307 306 308 310 312 314 315 316 317 315 313 314 315 318 327 330 332 331 329 328 327 326 327 331 329
304 304 304 304 304 304 303 302 301 302 302 304 305 306 305 307 306 305 304 305 306 306 306 306 308 308 309 313 313 314 314 314 314 314 316 318 326 326 328 325 325 329 328 328 329 329 330
304 303 303 303 303 302 303 303 303 304 303 305 305 305 305 304 304 304 305 306 306 306 305 306 307 306 308 309 310 312 311 314 314 315 315 316 322 322 325 323 323 325 326 327 328 329 329
303 302 302 302 301 301 301 301 302 304 303 304 305 304 305 304 305 304 305 304 306 306 306 305 306 306 306 306 307 307 308 309 311 312 314 314 317 320 325 324 324 326 326 327 327 328 329
303 302 302 302 302 301 300 300 300 301 302 302 303 302 303 306 305 305 304 304 304 305 306 305 305 305 306 305 306 307 308 309 309 310 311 314 316 317 322 324 326 326 327 327 327 327 328
303 303 303 302 302 301 301 300 300 302 302 302 302 303 302 306 304 305 305 305 304 304 304 305 304 305 305 305 309 309 310 310 310 310 310 311 315 317 320 322 324 325 324 325 327 329 328
302 302 302 302 301 301 301 301 301 303 303 303 302 302 302 302 305 304 305 304 305 305 306 304 304 304 306 308 309 310 309 310 311 314 312 311 312 316 317 320 323 323 324 323 326 329 329
302 301 301 301 301 302 302 302 302 304 305 305 304 303 303 301 302 303 305 306 304 304 305 304 305 305 305 309 309 309 309 309 310 311 315 312 313 313 315 317 319 321 324 329 330 338 335
301 301 302 303 304 304 303 303 304 305 307 307 307 305 304 301 303 303 304 303 304 304 306 304 305 306 307 309 309 309 310 310 312 312 313 315 314 313 313 315 316 316 318 327 330 330 332
307 307 307 307 306 305 304 304 305 307 308 308 308 308 306 304 303 304 303 304 304 304 304 304 304 306 306 309 309 308 311 310 310 312 312 313 313 317 314 314 314 315 317 318 319 321 324